timestamp,surface_pressure_avg,surface_temp_avg,battery_voltage,lat,long
2023-09-19 00:09:00+00:00,317.143,18.8,11.86,47.84626,-54.09684
2023-09-19 00:19:00+00:00,319.7396,18.8,11.86,47.84626,-54.09684
2023-09-19 00:29:00+00:00,329.733,18.8,11.86,47.84626,-54.09684
2023-09-19 00:39:00+00:00,340.1613,18.8,11.86,47.84626,-54.09684
2023-09-19 00:49:00+00:00,342.9547,18.8,11.86,47.84626,-54.09684
2023-09-19 00:59:00+00:00,342.7164,18.8,11.86,47.84626,-54.09684
2023-09-19 01:09:00+00:00,347.9196,18.8,11.86,47.84626,-54.09684
2023-09-19 01:19:00+00:00,352.0013,18.8,11.86,47.84626,-54.09684
2023-09-19 01:29:00+00:00,352.31300000000016,18.8,11.86,47.84626,-54.09684
2023-09-19 01:39:00+00:00,355.3163,18.75,11.86,47.84626,-54.09684
2023-09-19 01:49:00+00:00,360.0162,18.77,11.86,47.84626,-54.09684
2023-09-19 01:59:00+00:00,356.7047,18.79,11.86,47.84626,-54.09684
2023-09-19 02:09:00+00:00,354.1296,18.7,11.86,47.84626,-54.09684
2023-09-19 02:19:00+00:00,350.1514,18.6,11.86,47.84626,-54.09684
2023-09-19 02:29:00+00:00,348.898,18.6,11.86,47.84626,-54.09684
2023-09-19 02:39:00+00:00,345.1163,18.6,11.86,47.84626,-54.09684
2023-09-19 02:49:00+00:00,343.3246,18.63,11.86,47.84626,-54.09684
2023-09-19 02:59:00+00:00,340.8413,18.66,11.86,47.84626,-54.09684
2023-09-19 03:09:00+00:00,333.0463,18.67,11.86,47.84626,-54.09684
2023-09-19 03:19:00+00:00,326.1063,18.69,11.86,47.84626,-54.09684
2023-09-19 03:29:00+00:00,323.3163,18.7,11.86,47.84626,-54.09684
2023-09-19 03:39:00+00:00,321.6047,18.69,11.86,47.84626,-54.09684
2023-09-19 03:49:00+00:00,319.5613,18.69,11.86,47.84626,-54.09684
2023-09-19 03:59:00+00:00,316.7297,18.65,11.86,47.84626,-54.09684
2023-09-19 04:09:00+00:00,315.733,18.6,11.86,47.84626,-54.09684
2023-09-19 04:19:00+00:00,309.3413,18.5,11.77,47.84626,-54.09684
2023-09-19 04:29:00+00:00,301.5647,18.3,11.77,47.84626,-54.09684
2023-09-19 04:39:00+00:00,294.6814,18.2,11.77,47.84626,-54.09684
2023-09-19 04:49:00+00:00,286.8647,18.2,11.77,47.84626,-54.09684
2023-09-19 04:59:00+00:00,276.8031,18.15,11.77,47.84626,-54.09684
2023-09-19 05:09:00+00:00,269.0164,18.1,11.77,47.84626,-54.09684
2023-09-19 05:19:00+00:00,264.4597,18.1,11.77,47.84626,-54.09684
2023-09-19 05:29:00+00:00,257.7314,18.1,11.77,47.84626,-54.09684
2023-09-19 05:39:00+00:00,251.1297,18.03,11.77,47.84626,-54.09684
2023-09-19 05:49:00+00:00,245.8114,18.0,11.77,47.84626,-54.09684
2023-09-19 05:59:00+00:00,240.6148,18.0,11.77,47.84626,-54.09684
2023-09-19 06:09:00+00:00,230.3064,18.0,11.77,47.84626,-54.09684
2023-09-19 06:19:01+00:00,224.9081,18.09,11.77,47.84626,-54.09684
2023-09-19 06:29:01+00:00,216.1081,18.1,11.77,47.84626,-54.09684
2023-09-19 06:39:01+00:00,202.2998,18.1,11.77,47.84626,-54.09684
2023-09-19 06:49:01+00:00,197.3398,18.08,11.77,47.84626,-54.09684
2023-09-19 06:59:01+00:00,197.1581,18.08,11.77,47.84626,-54.09684
2023-09-19 07:09:01+00:00,190.0614,18.04,11.77,47.84626,-54.09684
2023-09-19 07:19:00+00:00,184.7982,17.9,11.77,47.84626,-54.09684
2023-09-19 07:29:00+00:00,188.7281,17.9,11.77,47.84626,-54.09684
2023-09-19 07:39:00+00:00,187.9748,17.95,11.77,47.84626,-54.09684
2023-09-19 07:49:00+00:00,186.7048,18.01,11.77,47.84626,-54.09684
2023-09-19 07:59:00+00:00,188.9449,18.0,11.77,47.84626,-54.09684
2023-09-19 08:09:00+00:00,191.1781,17.9,11.77,47.84626,-54.09684
2023-09-19 08:19:01+00:00,189.5915,18.0,11.77,47.84626,-54.09684
2023-09-19 08:29:01+00:00,189.7515,18.06,11.77,47.84626,-54.09684
2023-09-19 08:39:01+00:00,199.9598,18.1,11.77,47.84626,-54.09684
2023-09-19 08:49:01+00:00,201.3198,18.2,11.77,47.84626,-54.09684
2023-09-19 08:59:01+00:00,198.8781,18.32,11.77,47.84626,-54.09684
2023-09-19 09:09:01+00:00,206.3498,18.39,11.77,47.84626,-54.09684
2023-09-19 09:19:01+00:00,210.9015,18.4,11.77,47.84626,-54.09684
2023-09-19 09:29:01+00:00,213.2097,18.4,11.77,47.84626,-54.09684
2023-09-19 09:39:01+00:00,224.9447,18.4,11.77,47.84626,-54.09684
2023-09-19 09:49:01+00:00,232.1714,18.4,11.77,47.84626,-54.09684
2023-09-19 09:59:01+00:00,229.9414,18.4,11.77,47.84626,-54.09684
2023-09-19 10:09:01+00:00,231.6731,18.39,11.77,47.84626,-54.09684
2023-09-19 10:19:00+00:00,236.3498,18.37,11.77,47.84626,-54.09684
2023-09-19 10:29:00+00:00,237.3764,18.38,11.77,47.84626,-54.09684
2023-09-19 10:39:00+00:00,240.7181,18.35,11.77,47.84626,-54.09684
2023-09-19 10:49:00+00:00,247.6848,18.3,11.77,47.84626,-54.09684
2023-09-19 10:59:00+00:00,251.2314,18.31,11.77,47.84626,-54.09684
2023-09-19 11:09:00+00:00,256.0614,18.3,11.77,47.84626,-54.09684
2023-09-19 11:19:00+00:00,258.5897,18.3,11.77,47.84626,-54.09684
2023-09-19 11:29:00+00:00,264.183,18.3,11.77,47.84626,-54.09684
2023-09-19 11:39:00+00:00,272.4914,18.3,11.77,47.84626,-54.09684
2023-09-19 11:49:00+00:00,280.1864,18.3,11.77,47.84626,-54.09684
2023-09-19 11:59:00+00:00,281.1198,18.3,11.77,47.84626,-54.09684
2023-09-19 12:09:00+00:00,290.1947,18.3,11.77,47.84626,-54.09684
2023-09-19 13:19:00+00:00,332.7947,18.3,11.77,47.84626,-54.09684
2023-09-19 13:29:00+00:00,336.7012,18.3,11.77,47.84626,-54.09684
2023-09-19 13:39:00+00:00,331.9563,18.3,11.77,47.84626,-54.09684
2023-09-19 13:49:00+00:00,338.8230000000001,18.3,11.77,47.84626,-54.09684
2023-09-19 13:59:00+00:00,341.2630000000001,18.28,11.77,47.84626,-54.09684
2023-09-19 14:09:00+00:00,339.9396,18.27,11.77,47.84626,-54.09684
2023-09-19 14:19:00+00:00,338.7263,18.27,11.77,47.84626,-54.09684
2023-09-19 14:29:00+00:00,342.598,18.25,11.77,47.84626,-54.09684
2023-09-19 14:39:00+00:00,341.5563,18.2,11.77,47.84626,-54.09684
2023-09-19 14:49:00+00:00,336.5013,18.23,11.77,47.84626,-54.09684
2023-09-19 14:59:00+00:00,327.8696,18.28,11.77,47.84626,-54.09684
2023-09-19 15:09:00+00:00,325.988,18.25,11.77,47.84626,-54.09684
2023-09-19 15:19:00+00:00,320.3213,18.25,11.77,47.84626,-54.09684
2023-09-19 15:29:00+00:00,315.8114,18.26,11.77,47.84626,-54.09684
2023-09-19 15:39:00+00:00,311.583,18.23,11.77,47.84626,-54.09684
2023-09-19 15:49:00+00:00,308.9963,18.26,11.77,47.84626,-54.09684
2023-09-19 15:59:00+00:00,303.1613,18.28,11.77,47.84626,-54.09684
2023-09-19 16:09:00+00:00,299.1281,18.28,11.77,47.84626,-54.09684
2023-09-19 16:19:01+00:00,297.9047,18.29,11.77,47.84626,-54.09684
2023-09-19 16:29:01+00:00,290.5914,18.29,11.77,47.84626,-54.09684
2023-09-19 16:39:01+00:00,283.0147,18.3,11.77,47.84626,-54.09684
2023-09-19 16:49:01+00:00,278.5714,18.3,11.77,47.84626,-54.09684
2023-09-19 16:59:01+00:00,271.4781,18.3,11.77,47.84626,-54.09684
2023-09-19 17:09:01+00:00,264.6748,18.3,11.77,47.84626,-54.09684
2023-09-19 17:19:01+00:00,258.2647,18.3,11.77,47.84626,-54.09684
2023-09-19 17:29:01+00:00,251.9231,18.3,11.77,47.84626,-54.09684
2023-09-19 17:39:01+00:00,243.9547,18.3,11.77,47.84626,-54.09684
2023-09-19 17:49:01+00:00,239.7281,18.3,11.77,47.84626,-54.09684
2023-09-19 17:59:01+00:00,234.3781,18.35,11.77,47.84626,-54.09684
2023-09-19 18:09:01+00:00,222.6531,18.39,11.77,47.84626,-54.09684
2023-09-19 18:19:00+00:00,214.0531,18.38,11.77,47.84626,-54.09684
2023-09-19 18:29:00+00:00,209.5231,18.39,11.77,47.84626,-54.09684
2023-09-19 18:39:00+00:00,203.2181,18.39,11.77,47.84626,-54.09684
2023-09-19 18:49:00+00:00,197.1364,18.39,11.77,47.84626,-54.09684
2023-09-19 18:59:00+00:00,188.5831,18.2,11.77,47.84626,-54.09684
2023-09-19 19:09:00+00:00,181.9514,18.23,11.77,47.84626,-54.09684
2023-09-19 19:19:00+00:00,181.0998,18.29,11.77,47.84626,-54.09684
2023-09-19 19:29:00+00:00,180.9131,18.15,11.77,47.84626,-54.09684
2023-09-19 19:39:00+00:00,178.9881,17.6,11.77,47.84626,-54.09684
2023-09-19 19:49:00+00:00,173.4232,17.78,11.77,47.84626,-54.09684
2023-09-19 19:59:00+00:00,173.7314,18.11,11.77,47.84626,-54.09684
2023-09-19 20:09:00+00:00,173.8265,18.2,11.77,47.84626,-54.09684
2023-09-19 20:19:00+00:00,172.3315,18.1,11.77,47.84626,-54.09684
2023-09-19 20:29:00+00:00,176.7115,18.07,11.77,47.84626,-54.09684
2023-09-19 20:39:00+00:00,181.7431,18.21,11.77,47.84626,-54.09684
2023-09-19 20:49:00+00:00,185.5515,18.3,11.77,47.84626,-54.09684
2023-09-19 20:59:00+00:00,188.2098,18.3,11.77,47.84626,-54.09684
2023-09-19 21:09:00+00:00,196.1115,18.3,11.77,47.84626,-54.09684
2023-09-19 21:19:00+00:00,202.7781,18.3,11.77,47.84626,-54.09684
2023-09-19 21:29:00+00:00,206.2398,18.3,11.77,47.84626,-54.09684
2023-09-19 21:39:00+00:00,208.8831,18.3,11.77,47.84626,-54.09684
2023-09-19 21:49:00+00:00,212.4731,18.3,11.77,47.84626,-54.09684
2023-09-19 21:59:00+00:00,215.4615,18.3,11.77,47.84626,-54.09684
2023-09-19 22:09:00+00:00,220.7781,18.3,11.77,47.84626,-54.09684
2023-09-19 22:19:01+00:00,226.9981,18.3,11.77,47.84626,-54.09684
2023-09-19 22:29:01+00:00,226.0764,18.3,11.77,47.84626,-54.09684
2023-09-19 22:39:01+00:00,230.3914,18.3,11.77,47.84626,-54.09684
2023-09-19 22:49:01+00:00,242.5814,18.3,11.77,47.84626,-54.09684
2023-09-19 22:59:01+00:00,245.2448,18.3,11.77,47.84626,-54.09684
2023-09-19 23:09:01+00:00,244.6314,18.3,11.77,47.84626,-54.09684
2023-09-19 23:19:00+00:00,250.0814,18.3,11.77,47.84626,-54.09684
2023-09-19 23:29:00+00:00,259.9231,18.3,11.77,47.84626,-54.09684
2023-09-19 23:39:00+00:00,261.5198,18.28,11.77,47.84626,-54.09684
2023-09-19 23:49:00+00:00,262.9114,18.29,11.77,47.84626,-54.09684
2023-09-19 23:59:00+00:00,269.3764,18.3,11.77,47.84626,-54.09684
